{"data":{"norad_id":65984,"epoch":"2026-09-20T22:05:30.932160Z","epoch_age_seconds":104101,"freshness":"FRESH","line1":"1 65984U 25230L   26263.92049690  .00000115  00000+0  95930-4 0  9998","line2":"2 65984  81.2983 123.3786 0001448  24.1032 336.0191 13.82090171 47033","mean_motion":13.82090171,"eccentricity":0.0001448,"inclination_deg":81.2983,"raan_deg":123.3786,"arg_perigee_deg":24.1032,"mean_anomaly_deg":336.0191,"bstar":9.593e-5,"rev_number":4703,"period_min":104.19001814897,"perigee_km":955.42045204065,"apogee_km":957.54455784928,"semimajor_km":7334.619504945,"source":"CELESTRAK","updated_at":"2026-09-21T09:00:15.688921Z"}}